| time (UTC) | temp F | wind direction | speed knots | gust knots | rain 1hr in | rain 24hr in | rain mn in | humidity % | barometer mb |
| 20260509063540 | 54 | 0.0 | 0.0 | 0.03 | 0.09 | 0.04 | 97 | 1010.3 | |
| 20260509062600 | 54 | 0.0 | 0.0 | 0.03 | 0.09 | 0.04 | 97 | 1010.5 | |
| 20260509061520 | 54 | 0.0 | 0.0 | 0.03 | 0.09 | 0.04 | 97 | 1010.5 | |
| 20260509060520 | 54 | 0.0 | 0.0 | 0.02 | 0.08 | 0.03 | 97 | 1010.8 | |
| 20260509055520 | 54 | 0.0 | 0.0 | 0.01 | 0.07 | 0.02 | 97 | 1010.9 | |
| 20260509054520 | 54 | 0.0 | 0.0 | 0.01 | 0.07 | 0.02 | 97 | 1010.9 | |
| 20260509053601 | 54 | 0.0 | 0.0 | 0.00 | 0.06 | 0.01 | 97 | 1010.8 | |
| 20260509052520 | 54 | 25 | 0.0 | 0.9 | 0.00 | 0.06 | 0.01 | 97 | 1010.7 |
| 20260509051520 | 54 | 343 | 0.9 | 2.6 | 0.00 | 0.06 | 0.01 | 97 | 1010.6 |
| 20260509050540 | 54 | 3 | 0.0 | 1.7 | 0.01 | 0.06 | 0.01 | 96 | 1010.5 |
| 20260509045520 | 54 | 3 | 0.0 | 1.7 | 0.01 | 0.06 | 0.01 | 96 | 1010.4 |
| 20260509044520 | 55 | 357 | 0.9 | 2.6 | 0.01 | 0.06 | 0.01 | 96 | 1010.3 |
| 20260509043540 | 55 | 353 | 2.6 | 4.3 | 0.01 | 0.06 | 0.01 | 96 | 1010.3 |
| 20260509042520 | 55 | 338 | 0.0 | 2.6 | 0.02 | 0.06 | 0.01 | 96 | 1010.5 |
| 20260509041521 | 55 | 357 | 1.7 | 2.6 | 0.02 | 0.06 | 0.01 | 96 | 1010.6 |
| 20260509040520 | 55 | 357 | 0.0 | 1.7 | 0.02 | 0.05 | 0.00 | 96 | 1010.7 |
| 20260509035520 | 55 | 358 | 0.9 | 2.6 | 0.02 | 0.05 | 0.05 | 95 | 1010.7 |
| 20260509034521 | 55 | 6 | 0.9 | 2.6 | 0.03 | 0.05 | 0.05 | 95 | 1010.9 |
| 20260509033540 | 55 | 354 | 0.9 | 1.7 | 0.03 | 0.05 | 0.05 | 95 | 1011.1 |
| 20260509032541 | 55 | 12 | 0.9 | 1.7 | 0.03 | 0.04 | 0.04 | 94 | 1011.2 |
| 20260509031520 | 55 | 0.0 | 0.0 | 0.04 | 0.04 | 0.04 | 93 | 1011.3 | |
| 20260509030520 | 55 | 0.0 | 0.0 | 0.03 | 0.03 | 0.03 | 93 | 1011.3 | |
| 20260509025521 | 55 | 0.0 | 0.0 | 0.03 | 0.03 | 0.03 | 93 | 1011.3 | |
| 20260509024541 | 55 | 0.0 | 0.0 | 0.02 | 0.02 | 0.02 | 92 | 1011.3 | |
| 20260509023520 | 55 | 0.0 | 0.0 | 0.02 | 0.02 | 0.02 | 92 | 1011.1 | |
| 20260509022521 | 56 | 21 | 0.0 | 2.6 | 0.01 | 0.01 | 0.01 | 91 | 1011.3 |
| 20260509021520 | 56 | 8 | 1.7 | 3.5 | 0.00 | 0.00 | 0.00 | 91 | 1011.3 |
| 20260509020521 | 56 | 8 | 2.6 | 6.1 | 0.00 | 0.00 | 0.00 | 90 | 1011.5 |
| 20260509015520 | 56 | 360 | 2.6 | 4.3 | 0.00 | 0.00 | 0.00 | 88 | 1011.6 |
| 20260509014521 | 56 | 351 | 1.7 | 5.2 | 0.00 | 0.00 | 0.00 | 87 | 1011.4 |
| 20260509013521 | 57 | 359 | 3.5 | 7.8 | 0.00 | 0.00 | 0.00 | 85 | 1011.1 |
| 20260509012521 | 58 | 5 | 2.6 | 5.2 | 0.00 | 0.00 | 0.00 | 83 | 1011.1 |
| 20260509011521 | 58 | 346 | 2.6 | 5.2 | 0.00 | 0.00 | 0.00 | 80 | 1011.0 |
| 20260509010541 | 59 | 332 | 1.7 | 5.2 | 0.00 | 0.00 | 0.00 | 77 | 1010.7 |
| 20260509005520 | 60 | 348 | 1.7 | 3.5 | 0.00 | 0.00 | 0.00 | 74 | 1010.3 |
| 20260509004521 | 60 | 345 | 0.9 | 4.3 | 0.00 | 0.00 | 0.00 | 71 | 1010.2 |
| 20260509003521 | 61 | 7 | 3.5 | 5.2 | 0.00 | 0.00 | 0.00 | 70 | 1010.2 |
| 20260509002521 | 61 | 348 | 0.9 | 3.5 | 0.00 | 0.00 | 0.00 | 68 | 1010.3 |
| 20260509001521 | 62 | 360 | 0.9 | 1.7 | 0.00 | 0.00 | 0.00 | 64 | 1010.2 |
| 20260509000521 | 63 | 0.0 | 0.0 | 0.00 | 0.00 | 0.00 | 65 | 1010.3 | |
| 20260508235521 | 63 | 0.0 | 0.0 | 0.00 | 0.00 | 0.00 | 62 | 1010.3 | |
| 20260508234601 | 64 | 323 | 0.0 | 0.9 | 0.00 | 0.00 | 0.00 | 59 | 1010.2 |
| 20260508233521 | 64 | 188 | 1.7 | 2.6 | 0.00 | 0.00 | 0.00 | 58 | 1010.2 |
| 20260508232521 | 64 | 0.0 | 0.0 | 0.00 | 0.00 | 0.00 | 60 | 1010.3 | |
| 20260508231521 | 65 | 226 | 2.6 | 3.5 | 0.00 | 0.00 | 0.00 | 55 | 1010.2 |
| 20260508230521 | 65 | 207 | 1.7 | 4.3 | 0.00 | 0.00 | 0.00 | 56 | 1010.2 |
| 20260508225521 | 65 | 245 | 2.6 | 6.1 | 0.00 | 0.00 | 0.00 | 55 | 1010.2 |
| 20260508224521 | 65 | 207 | 2.6 | 3.5 | 0.00 | 0.00 | 0.00 | 57 | 1010.2 |
| 20260508223521 | 64 | 265 | 0.9 | 1.7 | 0.00 | 0.00 | 0.00 | 59 | 1010.2 |
| 20260508222521 | 64 | 202 | 0.9 | 3.5 | 0.00 | 0.00 | 0.00 | 58 | 1010.1 |
| 20260508221521 | 65 | 227 | 0.9 | 3.5 | 0.00 | 0.00 | 0.00 | 58 | 1010.1 |
| 20260508220521 | 65 | 327 | 0.0 | 0.9 | 0.00 | 0.00 | 0.00 | 56 | 1010.1 |
| 20260508215521 | 66 | 273 | 1.7 | 3.5 | 0.00 | 0.00 | 0.00 | 52 | 1010.0 |
| 20260508214521 | 67 | 222 | 3.5 | 5.2 | 0.00 | 0.00 | 0.00 | 50 | 1010.0 |
| 20260508213521 | 67 | 256 | 2.6 | 4.3 | 0.00 | 0.00 | 0.00 | 49 | 1010.0 |
| 20260508212521 | 67 | 212 | 4.3 | 7.0 | 0.00 | 0.00 | 0.00 | 48 | 1009.9 |
| 20260508211521 | 67 | 218 | 3.5 | 8.7 | 0.00 | 0.00 | 0.00 | 48 | 1010.1 |
| 20260508210521 | 67 | 239 | 4.3 | 7.0 | 0.00 | 0.00 | 0.00 | 48 | 1010.3 |
| 20260508205521 | 68 | 226 | 6.1 | 7.8 | 0.00 | 0.00 | 0.00 | 47 | 1010.2 |
| 20260508204521 | 69 | 219 | 4.3 | 6.1 | 0.00 | 0.00 | 0.00 | 48 | 1010.2 |
| 20260508203521 | 69 | 221 | 4.3 | 7.0 | 0.00 | 0.00 | 0.00 | 47 | 1010.5 |
| 20260508202541 | 69 | 232 | 4.3 | 7.0 | 0.00 | 0.00 | 0.00 | 46 | 1010.6 |
| 20260508201542 | 68 | 213 | 7.0 | 12.2 | 0.00 | 0.00 | 0.00 | 45 | 1010.9 |
| 20260508200542 | 68 | 229 | 6.1 | 10.4 | 0.00 | 0.00 | 0.00 | 45 | 1011.1 |
| 20260508195522 | 68 | 208 | 7.8 | 10.4 | 0.00 | 0.00 | 0.00 | 45 | 1011.5 |
| 20260508194522 | 68 | 232 | 6.1 | 15.6 | 0.00 | 0.00 | 0.00 | 45 | 1011.5 |
| 20260508193521 | 68 | 206 | 7.8 | 12.2 | 0.00 | 0.00 | 0.00 | 47 | 1011.7 |
| 20260508192521 | 67 | 202 | 9.6 | 13.9 | 0.00 | 0.00 | 0.00 | 45 | 1011.8 |
| 20260508191522 | 67 | 217 | 6.1 | 11.3 | 0.00 | 0.00 | 0.00 | 47 | 1012.0 |
| 20260508190521 | 67 | 215 | 8.7 | 13.9 | 0.00 | 0.00 | 0.00 | 46 | 1012.1 |
| 20260508185521 | 68 | 225 | 8.7 | 13.9 | 0.00 | 0.00 | 0.00 | 44 | 1012.1 |
| 20260508184522 | 68 | 226 | 8.7 | 13.9 | 0.00 | 0.00 | 0.00 | 44 | 1012.2 |
| 20260508183521 | 69 | 198 | 10.4 | 14.8 | 0.00 | 0.00 | 0.00 | 42 | 1012.1 |
| 20260508182542 | 70 | 189 | 9.6 | 13.9 | 0.00 | 0.00 | 0.00 | 43 | 1012.1 |
| 20260508181542 | 70 | 216 | 8.7 | 13.9 | 0.00 | 0.00 | 0.00 | 44 | 1012.2 |
| 20260508180522 | 68 | 199 | 9.6 | 14.8 | 0.00 | 0.00 | 0.00 | 44 | 1012.5 |
| 20260508175521 | 69 | 201 | 10.4 | 14.8 | 0.00 | 0.00 | 0.00 | 44 | 1012.6 |
| 20260508174522 | 69 | 196 | 10.4 | 15.6 | 0.00 | 0.00 | 0.00 | 45 | 1012.9 |
| 20260508173521 | 67 | 208 | 7.8 | 11.3 | 0.00 | 0.00 | 0.00 | 48 | 1013.2 |
| 20260508172522 | 67 | 191 | 9.6 | 13.0 | 0.00 | 0.00 | 0.00 | 47 | 1013.4 |
| 20260508171542 | 68 | 208 | 10.4 | 15.6 | 0.00 | 0.00 | 0.00 | 46 | 1013.5 |
| 20260508170522 | 66 | 207 | 8.7 | 13.0 | 0.00 | 0.00 | 0.00 | 49 | 1013.7 |
| 20260508165522 | 66 | 234 | 6.1 | 10.4 | 0.00 | 0.00 | 0.00 | 49 | 1014.0 |
| 20260508164521 | 68 | 220 | 11.3 | 20.0 | 0.00 | 0.00 | 0.00 | 46 | 1014.0 |
| 20260508163522 | 67 | 225 | 7.8 | 13.0 | 0.00 | 0.00 | 0.00 | 48 | 1014.1 |
| 20260508162522 | 67 | 220 | 8.7 | 13.0 | 0.00 | 0.00 | 0.00 | 49 | 1014.4 |
| 20260508161522 | 64 | 223 | 7.8 | 13.0 | 0.00 | 0.00 | 0.00 | 51 | 1014.5 |
| 20260508160522 | 63 | 220 | 7.8 | 11.3 | 0.00 | 0.00 | 0.00 | 52 | 1014.7 |
| 20260508155522 | 63 | 218 | 8.7 | 13.9 | 0.00 | 0.00 | 0.00 | 51 | 1014.8 |
| 20260508154522 | 65 | 217 | 11.3 | 15.6 | 0.00 | 0.00 | 0.00 | 50 | 1014.9 |
| 20260508153522 | 64 | 233 | 7.0 | 9.6 | 0.00 | 0.00 | 0.00 | 53 | 1014.9 |
| 20260508152522 | 63 | 232 | 8.7 | 12.2 | 0.00 | 0.00 | 0.00 | 53 | 1014.9 |
| 20260508151542 | 63 | 215 | 10.4 | 14.8 | 0.00 | 0.00 | 0.00 | 53 | 1015.0 |
| 20260508150522 | 62 | 213 | 9.6 | 13.0 | 0.00 | 0.00 | 0.00 | 52 | 1014.9 |
| 20260508145522 | 62 | 202 | 9.6 | 12.2 | 0.00 | 0.00 | 0.00 | 52 | 1014.9 |
| 20260508144522 | 62 | 226 | 6.1 | 13.9 | 0.00 | 0.00 | 0.00 | 54 | 1015.2 |
| 20260508143522 | 61 | 236 | 8.7 | 11.3 | 0.00 | 0.00 | 0.00 | 53 | 1015.4 |
| 20260508142542 | 60 | 209 | 10.4 | 15.6 | 0.00 | 0.00 | 0.00 | 53 | 1015.5 |
| 20260508141542 | 60 | 206 | 8.7 | 11.3 | 0.00 | 0.00 | 0.00 | 54 | 1015.5 |
| 20260508140522 | 59 | 198 | 7.8 | 12.2 | 0.00 | 0.00 | 0.00 | 54 | 1015.6 |
| 20260508135522 | 58 | 222 | 7.8 | 11.3 | 0.00 | 0.00 | 0.00 | 56 | 1015.6 |
| 20260508134522 | 57 | 210 | 7.8 | 10.4 | 0.00 | 0.00 | 0.00 | 57 | 1015.6 |
| 20260508133542 | 57 | 220 | 8.7 | 11.3 | 0.00 | 0.00 | 0.00 | 57 | 1015.6 |
| 20260508132522 | 56 | 217 | 8.7 | 13.0 | 0.00 | 0.00 | 0.00 | 58 | 1015.6 |
| 20260508131522 | 56 | 219 | 7.8 | 11.3 | 0.00 | 0.00 | 0.00 | 58 | 1015.6 |
| 20260508130522 | 55 | 214 | 6.1 | 11.3 | 0.00 | 0.00 | 0.00 | 59 | 1015.6 |
| 20260508125522 | 54 | 217 | 6.1 | 8.7 | 0.00 | 0.00 | 0.00 | 60 | 1015.6 |
| 20260508124523 | 53 | 210 | 5.2 | 7.8 | 0.00 | 0.00 | 0.00 | 62 | 1015.7 |
| 20260508123522 | 52 | 218 | 5.2 | 7.8 | 0.00 | 0.00 | 0.00 | 63 | 1015.6 |
| 20260508122522 | 51 | 201 | 6.1 | 7.8 | 0.00 | 0.00 | 0.00 | 64 | 1015.6 |
| 20260508121603 | 51 | 202 | 5.2 | 7.0 | 0.00 | 0.00 | 0.00 | 65 | 1015.5 |
| 20260508120522 | 50 | 205 | 6.1 | 7.8 | 0.00 | 0.00 | 0.00 | 65 | 1015.4 |
| 20260508115543 | 49 | 204 | 5.2 | 7.0 | 0.00 | 0.00 | 0.00 | 67 | 1015.3 |
| 20260508114522 | 48 | 187 | 4.3 | 7.0 | 0.00 | 0.00 | 0.00 | 70 | 1015.3 |
| 20260508113522 | 47 | 191 | 3.5 | 5.2 | 0.00 | 0.00 | 0.00 | 72 | 1015.2 |
| 20260508112523 | 46 | 190 | 3.5 | 3.5 | 0.00 | 0.00 | 0.00 | 74 | 1015.1 |
| 20260508111522 | 45 | 189 | 3.5 | 5.2 | 0.00 | 0.00 | 0.00 | 74 | 1015.1 |
| 20260508110523 | 45 | 194 | 3.5 | 4.3 | 0.00 | 0.00 | 0.00 | 75 | 1015.0 |
| 20260508105523 | 45 | 199 | 3.5 | 4.3 | 0.00 | 0.00 | 0.00 | 75 | 1014.9 |
| 20260508104522 | 44 | 199 | 2.6 | 4.3 | 0.00 | 0.00 | 0.00 | 76 | 1014.9 |
| 20260508103523 | 44 | 195 | 1.7 | 2.6 | 0.00 | 0.00 | 0.00 | 77 | 1014.8 |
| 20260508102522 | 44 | 190 | 2.6 | 2.6 | 0.00 | 0.00 | 0.00 | 77 | 1014.9 |
| 20260508101523 | 44 | 194 | 1.7 | 3.5 | 0.00 | 0.00 | 0.00 | 77 | 1014.9 |
| 20260508100523 | 44 | 149 | 1.7 | 2.6 | 0.00 | 0.00 | 0.00 | 76 | 1014.8 |
| 20260508095522 | 45 | 181 | 1.7 | 4.3 | 0.00 | 0.00 | 0.00 | 76 | 1014.8 |
| 20260508094522 | 46 | 174 | 0.9 | 1.7 | 0.00 | 0.00 | 0.00 | 75 | 1014.8 |
| 20260508093523 | 47 | 193 | 2.6 | 3.5 | 0.00 | 0.00 | 0.00 | 72 | 1014.9 |
| 20260508092523 | 47 | 212 | 3.5 | 4.3 | 0.00 | 0.00 | 0.00 | 71 | 1015.0 |
| 20260508091523 | 47 | 202 | 2.6 | 3.5 | 0.00 | 0.00 | 0.00 | 70 | 1014.9 |
| 20260508090543 | 48 | 213 | 1.7 | 2.6 | 0.00 | 0.00 | 0.00 | 69 | 1015.0 |
| 20260508085523 | 48 | 190 | 2.6 | 3.5 | 0.00 | 0.00 | 0.00 | 68 | 1014.9 |
| 20260508084523 | 48 | 197 | 3.5 | 4.3 | 0.00 | 0.00 | 0.00 | 67 | 1014.9 |
| 20260508083543 | 48 | 207 | 3.5 | 5.2 | 0.00 | 0.00 | 0.00 | 67 | 1014.9 |
| 20260508082523 | 49 | 209 | 3.5 | 5.2 | 0.00 | 0.00 | 0.00 | 68 | 1015.0 |
| 20260508081523 | 48 | 218 | 3.5 | 6.1 | 0.00 | 0.00 | 0.00 | 68 | 1014.9 |
| 20260508080523 | 48 | 212 | 3.5 | 5.2 | 0.00 | 0.00 | 0.00 | 69 | 1014.9 |
| 20260508075543 | 47 | 206 | 3.5 | 5.2 | 0.00 | 0.00 | 0.00 | 70 | 1014.9 |
| 20260508074522 | 47 | 210 | 2.6 | 4.3 | 0.00 | 0.00 | 0.00 | 72 | 1014.9 |
| 20260508073523 | 46 | 201 | 2.6 | 4.3 | 0.00 | 0.00 | 0.00 | 73 | 1014.9 |
| 20260508072543 | 46 | 225 | 1.7 | 2.6 | 0.00 | 0.00 | 0.00 | 74 | 1015.0 |
| 20260508071522 | 46 | 209 | 1.7 | 4.3 | 0.00 | 0.00 | 0.00 | 74 | 1015.0 |
| 20260508070523 | 47 | 0.0 | 0.0 | 0.00 | 0.00 | 0.00 | 72 | 1015.1 | |
| 20260508065523 | 47 | 209 | 2.6 | 3.5 | 0.00 | 0.00 | 0.00 | 71 | 1015.1 |
| 20260508064523 | 47 | 206 | 2.6 | 4.3 | 0.00 | 0.00 | 0.00 | 71 | 1015.1 |